Location: Unspecified
(0.0000°N, 0.0000°E)
Time: 17:51:42

Vanguard 1 Rocket - Pass Details

Date: 17 December 2017
Orbit: 655 x 4222 km, 34.3° (Epoch: 22 March)

Event Time Altitude Azimuth Distance (km) Brightness Sun altitude
Exits shadow 03:03:29 30° 250° (WSW) 5,473 10.9 -38.9°
Maximum altitude 03:11:29 36° 218° (SW) 4,655 10.8 -37.2°
Drops below altitude 10° 03:26:05 10° 155° (SSE) 5,048 11.7 -34.0°
Sets 03:29:47 0° 146° (SE) 5,606 12.3 -33.2°
